Location: Brienzwiler
(46.7508°N, 8.1014°E)
Time: 01:44:04
(UTC+00:00)

USA 215 - Pass Details

Date: 05 July 2020
Orbit: 1102 x 1106 km, 123.0° (Epoch: 08 August)

Event Time Altitude Azimuth Distance (km) Brightness Sun altitude
Rises 20:58:04 0° 53° (NE) 3,926 6.2 -12.3°
Reaches altitude 10° 21:00:35 10° 56° (ENE) 2,965 5.5 -12.6°
Maximum altitude 21:07:05 64° 138° (SE) 1,207 3.2 -13.2°
Drops below altitude 10° 21:13:33 10° 220° (SW) 2,952 5.3 -13.8°
Sets 21:16:04 0° 223° (SW) 3,908 6.0 -14.1°
